Regional Weather Roundup
Issued by NWS Charleston, WV

Home | Current Version | Previous Version | Graphics & Text | Print | Product List | Glossary On
Versions: 1 2 3 4 5 6 7 8 9 10 11 12 13 14 15 16 17 18 19 20 21 22 23 24 25 26 27 28 29 30 31 32 33 34 35 36 37 38 39 40 41 42 43 44 45 46 47 48 49 50
000
ASUS41 KRLX 230110
RWRRLX
West Virginia Regional Weather Roundup
National Weather Service Charleston WV
900 PM EDT TUE AUG 22 2017

Note: "fair" indicates few or no clouds below 12,000 feet with no
significant weather and/or obstructions to visibility.

WVZ003-230200-
Northern Panhandle of West Virginia

CITY           SKY/WX    TMP DP  RH WIND       PRES   REMARKS
WHEELING       CLOUDY    73  69  87 W8        29.87F
$$

WVZ009-230200-
Northwest West Virginia

CITY           SKY/WX    TMP DP  RH WIND       PRES   REMARKS
PARKERSBURG    CLOUDY    73  71  93 SW5       29.93R
$$

WVZ006-230200-
Western West Virginia

CITY           SKY/WX    TMP DP  RH WIND       PRES   REMARKS
HUNTINGTON     TSTM      73  70  90 W8        29.94S FOG
$$

WVZ015-230200-
West Central West Virginia

CITY           SKY/WX    TMP DP  RH WIND       PRES   REMARKS
CHARLESTON     CLOUDY    75  69  81 SW7       29.95R
$$

WVZ022-031-230200-
North Central West Virginia

CITY           SKY/WX    TMP DP  RH WIND       PRES   REMARKS
CLARKSBURG     LGT RAIN  72  69  90 SW13      29.92R
MORGANTOWN     CLOUDY    74  71  91 SW3       29.91R
$$

WVZ025-035-042-045-230200-
Southern West Virginia

CITY           SKY/WX    TMP DP  RH WIND       PRES   REMARKS
BECKLEY        CLOUDY    72  66  81 SW6       30.04R
LOGAN          MOCLDY    73  72  94 CALM      29.99R
BLUEFIELD      CLOUDY    74  61  63 W7        30.07R
LEWISBURG      CLOUDY    78  62  57 SW16      30.03R
$$

WVZ047-230200-
Northern Mountains of West Virginia

CITY           SKY/WX    TMP DP  RH WIND       PRES   REMARKS
ELKINS         CLOUDY    73  66  78 CALM      29.95S
$$

WVZ052-230200-
Eastern Panhandle of West Virginia

CITY           SKY/WX    TMP DP  RH WIND       PRES   REMARKS
MARTINSBURG    CLOUDY    77  68  73 NE3       29.82S
PETERSBURG     CLOUDY    78  70  75 CALM      29.86S
$$



USA.gov is the U.S. government's official web portal to all federal, state and local government web resources and services.